Location: Kott?ru
(16.6209°N, 80.6208°E)
Time: 14:16:38
(UTC+00:00)

X-37B - Visible Passes

Search period start: 04 October 2022 00:00
Search period end: 14 October 2022 00:00
Orbit: 329 x 342 km, 45.0° (Epoch: 29 September)

Date Brightness Start Highest point End Pass type
(mag) Time Alt. Az. Time Alt. Az. Time Alt. Az.
07 Oct 2.7 23:46:13 10° NNW 23:48:30 21° NE 23:50:47 10° E visible
09 Oct 0.3 00:06:05 10° NW 00:08:56 71° SW 00:11:47 10° SE visible
09 Oct 2.5 13:11:40 10° SSE 13:12:43 13° SE 13:12:43 13° SE visible
09 Oct 2.8 22:54:11 20° NE 22:54:11 20° NE 22:56:11 10° E visible
10 Oct 0.4 13:30:45 10° SW 13:33:14 65° SSW 13:33:14 65° SSW visible
10 Oct 0.5 23:14:42 61° S 23:14:42 61° S 23:17:13 10° SE visible
11 Oct 2.9 13:51:50 10° W 13:53:40 19° NW 13:53:40 19° NW visible
11 Oct 2.6 23:35:15 13° SW 23:35:15 13° SW 23:36:16 10° SSW visible
13 Oct 2.7 12:57:16 10° W 12:59:24 20° NW 13:01:34 10° N visible
